| time (UTC) | temp F | wind direction | speed knots | gust knots | rain 1hr in | rain 24hr in | rain mn in | humidity % | barometer mb |
| 20260507105558 | 53 | 335 | 7.8 | 12.2 | 0.00 | 0.36 | 0.00 | 75 | 1015.2 |
| 20260507105056 | 53 | 334 | 7.0 | 11.3 | 0.00 | 0.36 | 0.00 | 74 | 1015.0 |
| 20260507104614 | 53 | 11 | 7.0 | 10.4 | 0.00 | 0.36 | 0.00 | 73 | 1014.9 |
| 20260507104052 | 53 | 330 | 6.1 | 9.6 | 0.00 | 0.36 | 0.00 | 72 | 1014.8 |
| 20260507103556 | 53 | 327 | 6.1 | 8.7 | 0.00 | 0.36 | 0.00 | 71 | 1014.7 |
| 20260507103057 | 53 | 335 | 4.3 | 7.8 | 0.00 | 0.36 | 0.00 | 70 | 1014.5 |
| 20260507102556 | 53 | 316 | 6.1 | 7.8 | 0.00 | 0.36 | 0.00 | 70 | 1014.6 |
| 20260507102056 | 53 | 345 | 4.3 | 7.8 | 0.00 | 0.36 | 0.00 | 70 | 1014.4 |
| 20260507101558 | 53 | 332 | 5.2 | 8.7 | 0.00 | 0.36 | 0.00 | 70 | 1014.5 |
| 20260507101055 | 53 | 337 | 6.1 | 8.7 | 0.00 | 0.36 | 0.00 | 69 | 1014.5 |
| 20260507100555 | 53 | 338 | 4.3 | 9.6 | 0.00 | 0.36 | 0.00 | 69 | 1014.6 |
| 20260507100054 | 53 | 351 | 5.2 | 9.6 | 0.00 | 0.36 | 0.00 | 69 | 1014.5 |
| 20260507095555 | 53 | 313 | 5.2 | 7.8 | 0.00 | 0.36 | 0.00 | 69 | 1014.7 |
| 20260507095055 | 53 | 345 | 5.2 | 7.0 | 0.00 | 0.36 | 0.00 | 68 | 1014.6 |
| 20260507094608 | 54 | 352 | 4.3 | 7.0 | 0.00 | 0.36 | 0.00 | 67 | 1014.5 |
| 20260507094055 | 54 | 331 | 3.5 | 7.0 | 0.00 | 0.36 | 0.00 | 66 | 1014.4 |
| 20260507093556 | 54 | 331 | 3.5 | 7.0 | 0.00 | 0.36 | 0.00 | 66 | 1014.3 |
| 20260507093059 | 54 | 331 | 3.5 | 7.0 | 0.00 | 0.36 | 0.00 | 65 | 1014.3 |
| 20260507092555 | 54 | 333 | 4.3 | 8.7 | 0.00 | 0.36 | 0.00 | 65 | 1014.3 |
| 20260507092056 | 54 | 323 | 3.5 | 9.6 | 0.00 | 0.36 | 0.00 | 64 | 1014.3 |
| 20260507091635 | 54 | 6 | 6.1 | 9.6 | 0.00 | 0.36 | 0.00 | 63 | 1014.3 |
| 20260507091056 | 54 | 333 | 5.2 | 7.8 | 0.00 | 0.36 | 0.00 | 61 | 1014.4 |
| 20260507090556 | 54 | 337 | 5.2 | 7.8 | 0.00 | 0.36 | 0.00 | 60 | 1014.2 |
| 20260507090106 | 54 | 333 | 4.3 | 8.7 | 0.00 | 0.36 | 0.00 | 59 | 1014.3 |
| 20260507085555 | 54 | 347 | 4.3 | 10.4 | 0.00 | 0.36 | 0.00 | 60 | 1014.1 |
| 20260507085056 | 54 | 340 | 6.1 | 10.4 | 0.00 | 0.36 | 0.00 | 59 | 1014.3 |
| 20260507084557 | 54 | 318 | 5.2 | 9.6 | 0.00 | 0.36 | 0.00 | 58 | 1014.4 |
| 20260507084056 | 54 | 333 | 0.0 | 9.6 | 0.00 | 0.36 | 0.00 | 56 | 1014.3 |
| 20260507083555 | 54 | 333 | 7.0 | 9.6 | 0.00 | 0.36 | 0.00 | 55 | 1014.1 |
| 20260507083053 | 54 | 351 | 6.1 | 9.6 | 0.00 | 0.36 | 0.00 | 53 | 1014.1 |
| 20260507082555 | 54 | 324 | 5.2 | 8.7 | 0.00 | 0.36 | 0.00 | 51 | 1014.2 |
| 20260507082056 | 54 | 339 | 4.3 | 7.8 | 0.00 | 0.36 | 0.00 | 48 | 1014.1 |
| 20260507081556 | 54 | 353 | 0.9 | 9.6 | 0.00 | 0.36 | 0.00 | 45 | 1014.1 |
| 20260507081055 | 54 | 341 | 4.3 | 9.6 | 0.00 | 0.36 | 0.00 | 43 | 1014.1 |
| 20260507080555 | 54 | 349 | 5.2 | 9.6 | 0.00 | 0.36 | 0.00 | 42 | 1014.1 |
| 20260507080053 | 54 | 18 | 4.3 | 8.7 | 0.00 | 0.36 | 0.00 | 42 | 1014.1 |
| 20260507075555 | 54 | 360 | 5.2 | 9.6 | 0.00 | 0.36 | 0.00 | 41 | 1014.2 |
| 20260507075052 | 54 | 13 | 5.2 | 11.3 | 0.00 | 0.36 | 0.00 | 42 | 1014.3 |
| 20260507074559 | 53 | 360 | 7.0 | 11.3 | 0.00 | 0.36 | 0.00 | 42 | 1014.4 |
| 20260507074055 | 53 | 333 | 5.2 | 9.6 | 0.00 | 0.36 | 0.00 | 42 | 1014.6 |
| 20260507073558 | 53 | 10 | 5.2 | 9.6 | 0.00 | 0.36 | 0.00 | 42 | 1014.6 |
| 20260507073100 | 53 | 328 | 7.0 | 9.6 | 0.00 | 0.36 | 0.00 | 42 | 1015.0 |
| 20260507072556 | 53 | 332 | 5.2 | 7.8 | 0.00 | 0.36 | 0.00 | 42 | 1015.0 |
| 20260507072058 | 53 | 334 | 2.6 | 8.7 | 0.00 | 0.36 | 0.00 | 42 | 1014.9 |
| 20260507071602 | 53 | 355 | 5.2 | 9.6 | 0.00 | 0.36 | 0.00 | 42 | 1014.9 |
| 20260507071055 | 53 | 348 | 5.2 | 9.6 | 0.00 | 0.36 | 0.00 | 42 | 1014.9 |
| 20260507070555 | 53 | 332 | 5.2 | 7.8 | 0.00 | 0.36 | 0.00 | 42 | 1014.6 |
| 20260507070109 | 53 | 17 | 3.5 | 9.6 | 0.00 | 0.36 | 0.00 | 42 | 1014.5 |
| 20260507065555 | 53 | 12 | 5.2 | 9.6 | 0.00 | 0.36 | 0.00 | 42 | 1014.9 |
| 20260507065055 | 53 | 120 | 5.2 | 12.2 | 0.00 | 0.36 | 0.00 | 42 | 1014.4 |
| 20260507064601 | 53 | 11 | 6.1 | 12.2 | 0.00 | 0.36 | 0.00 | 42 | 1014.0 |
| 20260507064055 | 53 | 11 | 7.0 | 12.2 | 0.00 | 0.36 | 0.00 | 43 | 1014.2 |
| 20260507063553 | 53 | 16 | 7.0 | 9.6 | 0.00 | 0.36 | 0.00 | 43 | 1013.9 |
| 20260507063102 | 53 | 9 | 6.1 | 10.4 | 0.00 | 0.36 | 0.00 | 43 | 1014.3 |
| 20260507062554 | 53 | 12 | 4.3 | 10.4 | 0.00 | 0.36 | 0.00 | 43 | 1014.6 |
| 20260507062057 | 53 | 1 | 6.1 | 10.4 | 0.00 | 0.36 | 0.00 | 43 | 1014.2 |
| 20260507061559 | 53 | 314 | 5.2 | 8.7 | 0.00 | 0.36 | 0.00 | 43 | 1014.3 |
| 20260507061057 | 53 | 4 | 4.3 | 8.7 | 0.00 | 0.36 | 0.00 | 43 | 1014.7 |
| 20260507060555 | 53 | 8 | 5.2 | 8.7 | 0.00 | 0.36 | 0.00 | 43 | 1014.6 |
| 20260507060112 | 53 | 293 | 5.2 | 8.7 | 0.00 | 0.36 | 0.00 | 43 | 1014.5 |
| 20260507055556 | 53 | 27 | 4.3 | 7.8 | 0.00 | 0.36 | 0.00 | 43 | 1014.6 |
| 20260507055055 | 53 | 19 | 2.6 | 8.7 | 0.00 | 0.36 | 0.00 | 44 | 1014.4 |
| 20260507054055 | 53 | 25 | 4.3 | 7.8 | 0.00 | 0.36 | 0.00 | 44 | 1014.5 |
| 20260507053555 | 53 | 342 | 1.7 | 6.1 | 0.00 | 0.36 | 0.00 | 44 | 1014.7 |
| 20260507053100 | 53 | 0 | 0.0 | 7.0 | 0.00 | 0.36 | 0.00 | 45 | 1014.6 |
| 20260507052555 | 53 | 38 | 0.9 | 7.0 | 0.01 | 0.36 | 0.00 | 45 | 1014.5 |
| 20260507052055 | 53 | 0 | 3.5 | 8.7 | 0.06 | 0.36 | 0.00 | 45 | 1014.1 |
| 20260507051559 | 53 | 44 | 1.7 | 8.7 | 0.29 | 0.36 | 0.00 | 46 | 1014.4 |
| 20260507051054 | 53 | 349 | 5.2 | 10.4 | 0.32 | 0.36 | 0.00 | 46 | 1014.4 |
| 20260507050555 | 53 | 19 | 5.2 | 10.4 | 0.32 | 0.36 | 0.00 | 47 | 1014.4 |
| 20260507050100 | 53 | 342 | 6.1 | 10.4 | 0.32 | 0.36 | 0.00 | 47 | 1014.6 |
| 20260507045556 | 53 | 7 | 3.5 | 10.4 | 0.32 | 0.36 | 0.36 | 48 | 1014.1 |
| 20260507045056 | 53 | 341 | 5.2 | 10.4 | 0.32 | 0.36 | 0.36 | 48 | 1013.8 |
| 20260507044605 | 53 | 21 | 5.2 | 9.6 | 0.32 | 0.36 | 0.36 | 49 | 1013.8 |
| 20260507044055 | 53 | 11 | 4.3 | 9.6 | 0.32 | 0.36 | 0.36 | 51 | 1014.2 |
| 20260507043555 | 53 | 14 | 4.3 | 7.8 | 0.32 | 0.36 | 0.36 | 52 | 1014.3 |
| 20260507043101 | 53 | 0 | 0.9 | 11.3 | 0.32 | 0.36 | 0.36 | 54 | 1014.2 |
| 20260507042553 | 53 | 6 | 3.5 | 14.8 | 0.31 | 0.35 | 0.35 | 58 | 1014.1 |
| 20260507042058 | 54 | 19 | 7.0 | 14.8 | 0.26 | 0.30 | 0.30 | 66 | 1013.9 |
| 20260507041558 | 54 | 339 | 9.6 | 13.0 | 0.03 | 0.07 | 0.07 | 76 | 1014.4 |
| 20260507041057 | 54 | 329 | 7.8 | 13.0 | 0.00 | 0.04 | 0.04 | 78 | 1014.9 |
| 20260507040555 | 54 | 339 | 7.8 | 13.0 | 0.00 | 0.04 | 0.04 | 79 | 1014.3 |
| 20260507040056 | 54 | 34 | 7.8 | 13.0 | 0.00 | 0.04 | 0.04 | 79 | 1013.8 |
| 20260507035555 | 54 | 14 | 7.0 | 13.0 | 0.00 | 0.04 | 0.04 | 80 | 1013.4 |
| 20260507035055 | 54 | 32 | 5.2 | 15.6 | 0.00 | 0.04 | 0.04 | 80 | 1013.7 |
| 20260507034600 | 55 | 15 | 6.1 | 15.6 | 0.00 | 0.04 | 0.04 | 80 | 1013.5 |
| 20260507034055 | 55 | 357 | 3.5 | 13.9 | 0.00 | 0.04 | 0.04 | 79 | 1014.2 |
| 20260507033556 | 55 | 27 | 6.1 | 13.9 | 0.00 | 0.04 | 0.04 | 79 | 1013.5 |
| 20260507033056 | 55 | 340 | 6.1 | 12.2 | 0.00 | 0.04 | 0.04 | 79 | 1014.1 |
| 20260507032555 | 55 | 23 | 7.8 | 11.3 | 0.00 | 0.04 | 0.04 | 79 | 1014.3 |
| 20260507032055 | 55 | 340 | 7.8 | 14.8 | 0.00 | 0.04 | 0.04 | 79 | 1014.3 |
| 20260507031600 | 55 | 2 | 7.8 | 14.8 | 0.00 | 0.04 | 0.04 | 79 | 1014.3 |
| 20260507031055 | 54 | 333 | 7.8 | 15.6 | 0.00 | 0.04 | 0.04 | 79 | 1014.0 |
| 20260507030555 | 54 | 354 | 7.8 | 15.6 | 0.00 | 0.04 | 0.04 | 79 | 1014.3 |
| 20260507030057 | 54 | 354 | 8.7 | 14.8 | 0.00 | 0.04 | 0.04 | 79 | 1014.3 |
| 20260507025555 | 54 | 358 | 7.0 | 12.2 | 0.00 | 0.04 | 0.04 | 79 | 1014.1 |
| 20260507025055 | 54 | 19 | 6.1 | 13.0 | 0.00 | 0.04 | 0.04 | 79 | 1014.3 |
| 20260507024602 | 54 | 0 | 5.2 | 13.0 | 0.00 | 0.04 | 0.04 | 79 | 1014.3 |
| 20260507024055 | 54 | 6 | 6.1 | 12.2 | 0.00 | 0.04 | 0.04 | 79 | 1013.9 |
| 20260507023555 | 54 | 289 | 6.1 | 12.2 | 0.00 | 0.04 | 0.04 | 79 | 1014.0 |
| 20260507023058 | 54 | 39 | 7.0 | 12.2 | 0.00 | 0.04 | 0.04 | 80 | 1013.9 |
| 20260507022555 | 54 | 13 | 7.0 | 13.0 | 0.00 | 0.04 | 0.04 | 80 | 1014.2 |
| 20260507022052 | 54 | 342 | 7.0 | 13.0 | 0.00 | 0.04 | 0.04 | 79 | 1014.1 |
| 20260507021601 | 54 | 30 | 6.1 | 12.2 | 0.00 | 0.04 | 0.04 | 79 | 1014.1 |
| 20260507021052 | 54 | 314 | 6.1 | 12.2 | 0.00 | 0.04 | 0.04 | 79 | 1013.9 |
| 20260507020556 | 54 | 337 | 7.0 | 12.2 | 0.00 | 0.04 | 0.04 | 79 | 1013.9 |
| 20260507020101 | 54 | 0 | 3.5 | 12.2 | 0.00 | 0.04 | 0.04 | 79 | 1013.6 |
| 20260507015555 | 54 | 0 | 3.5 | 13.9 | 0.00 | 0.04 | 0.04 | 80 | 1013.0 |
| 20260507015052 | 54 | 37 | 6.1 | 15.6 | 0.00 | 0.04 | 0.04 | 80 | 1013.0 |
| 20260507014553 | 54 | 23 | 7.8 | 15.6 | 0.00 | 0.04 | 0.04 | 80 | 1012.9 |
| 20260507014052 | 54 | 356 | 8.7 | 13.0 | 0.00 | 0.04 | 0.04 | 80 | 1012.9 |
| 20260507013557 | 54 | 327 | 8.7 | 13.9 | 0.00 | 0.04 | 0.04 | 79 | 1012.8 |
| 20260507013058 | 54 | 4 | 6.1 | 15.6 | 0.00 | 0.04 | 0.04 | 79 | 1012.7 |
| 20260507012556 | 55 | 356 | 8.7 | 18.2 | 0.00 | 0.04 | 0.04 | 79 | 1012.7 |
| 20260507012055 | 55 | 11 | 9.6 | 18.2 | 0.00 | 0.04 | 0.04 | 80 | 1012.6 |
| 20260507011558 | 55 | 343 | 8.7 | 15.6 | 0.00 | 0.04 | 0.04 | 80 | 1012.9 |
| 20260507011055 | 55 | 359 | 9.6 | 15.6 | 0.00 | 0.04 | 0.04 | 80 | 1012.7 |
| 20260507010555 | 55 | 5 | 7.8 | 15.6 | 0.00 | 0.04 | 0.04 | 80 | 1012.9 |
| 20260507010110 | 55 | 10 | 8.7 | 13.9 | 0.00 | 0.04 | 0.04 | 80 | 1012.9 |
| 20260507005556 | 55 | 346 | 7.8 | 13.0 | 0.00 | 0.04 | 0.04 | 81 | 1013.2 |
| 20260507005055 | 55 | 314 | 6.1 | 10.4 | 0.00 | 0.04 | 0.04 | 80 | 1013.4 |
| 20260507004554 | 55 | 323 | 4.3 | 12.2 | 0.00 | 0.04 | 0.04 | 80 | 1013.0 |
| 20260507004055 | 55 | 26 | 6.1 | 13.9 | 0.00 | 0.04 | 0.04 | 80 | 1012.9 |
| 20260507003555 | 55 | 321 | 8.7 | 15.6 | 0.00 | 0.04 | 0.04 | 81 | 1012.9 |
| 20260507003056 | 55 | 5 | 9.6 | 15.6 | 0.00 | 0.04 | 0.04 | 82 | 1012.4 |
| 20260507002554 | 55 | 350 | 7.8 | 16.5 | 0.00 | 0.04 | 0.04 | 81 | 1012.4 |
| 20260507002055 | 55 | 27 | 7.0 | 16.5 | 0.00 | 0.04 | 0.04 | 81 | 1012.4 |
| 20260507001559 | 55 | 316 | 8.7 | 16.5 | 0.00 | 0.04 | 0.04 | 82 | 1012.4 |
| 20260507001054 | 55 | 23 | 7.8 | 13.0 | 0.00 | 0.04 | 0.04 | 81 | 1012.2 |
| 20260507000557 | 56 | 3 | 7.8 | 14.8 | 0.00 | 0.04 | 0.04 | 81 | 1012.5 |
| 20260507000101 | 56 | 23 | 6.1 | 15.6 | 0.00 | 0.04 | 0.04 | 81 | 1012.7 |
| 20260506235556 | 56 | 356 | 6.1 | 15.6 | 0.00 | 0.04 | 0.04 | 81 | 1012.8 |
| 20260506235058 | 56 | 21 | 8.7 | 15.6 | 0.00 | 0.04 | 0.04 | 82 | 1012.8 |
| 20260506234602 | 56 | 326 | 7.8 | 14.8 | 0.00 | 0.04 | 0.04 | 82 | 1013.1 |
| 20260506234055 | 56 | 18 | 7.0 | 14.8 | 0.00 | 0.04 | 0.04 | 82 | 1012.8 |
| 20260506233552 | 56 | 21 | 8.7 | 14.8 | 0.00 | 0.04 | 0.04 | 82 | 1012.9 |
| 20260506233105 | 56 | 9 | 7.8 | 13.0 | 0.00 | 0.04 | 0.04 | 82 | 1012.9 |
| 20260506232554 | 56 | 340 | 7.0 | 12.2 | 0.00 | 0.04 | 0.04 | 81 | 1012.8 |
| 20260506232054 | 56 | 359 | 5.2 | 12.2 | 0.00 | 0.04 | 0.04 | 82 | 1012.8 |
| 20260506231558 | 56 | 6 | 6.1 | 12.2 | 0.00 | 0.04 | 0.04 | 82 | 1012.7 |
| 20260506231055 | 56 | 11 | 3.5 | 11.3 | 0.00 | 0.04 | 0.04 | 83 | 1012.8 |
| 20260506230556 | 57 | 8 | 2.6 | 12.2 | 0.00 | 0.04 | 0.04 | 82 | 1012.9 |
| 20260506230059 | 56 | 15 | 7.8 | 12.2 | 0.00 | 0.04 | 0.04 | 82 | 1012.5 |
| 20260506225558 | 57 | 351 | 7.8 | 11.3 | 0.00 | 0.04 | 0.04 | 82 | 1012.4 |
| 20260506225059 | 57 | 352 | 6.1 | 11.3 | 0.00 | 0.04 | 0.04 | 82 | 1012.3 |
| 20260506224600 | 57 | 0 | 5.2 | 10.4 | 0.00 | 0.04 | 0.04 | 83 | 1012.3 |
| 20260506224054 | 57 | 6 | 5.2 | 10.4 | 0.00 | 0.04 | 0.04 | 83 | 1012.5 |
| 20260506223555 | 57 | 23 | 2.6 | 7.8 | 0.00 | 0.04 | 0.04 | 82 | 1012.5 |
| 20260506223101 | 57 | 21 | 3.5 | 7.8 | 0.00 | 0.04 | 0.04 | 82 | 1012.4 |
| 20260506222555 | 56 | 4 | 0.0 | 8.7 | 0.00 | 0.04 | 0.04 | 82 | 1012.3 |
| 20260506222055 | 56 | 0 | 0.9 | 8.7 | 0.00 | 0.04 | 0.04 | 83 | 1012.6 |
| 20260506221608 | 56 | 339 | 3.5 | 8.7 | 0.00 | 0.04 | 0.04 | 83 | 1012.4 |
| 20260506221055 | 56 | 0 | 0.0 | 5.2 | 0.00 | 0.04 | 0.04 | 81 | 1012.4 |
| 20260506220557 | 56 | 27 | 1.7 | 9.6 | 0.00 | 0.04 | 0.04 | 82 | 1012.3 |
| 20260506220057 | 56 | 22 | 0.9 | 9.6 | 0.00 | 0.04 | 0.04 | 81 | 1012.3 |
| 20260506215555 | 56 | 32 | 3.5 | 9.6 | 0.00 | 0.04 | 0.04 | 82 | 1012.4 |
| 20260506215056 | 56 | 39 | 0.0 | 9.6 | 0.00 | 0.04 | 0.04 | 80 | 1012.4 |
| 20260506214601 | 56 | 51 | 3.5 | 9.6 | 0.00 | 0.04 | 0.04 | 81 | 1012.4 |
| 20260506214052 | 56 | 321 | 0.9 | 8.7 | 0.00 | 0.04 | 0.04 | 81 | 1012.1 |
| 20260506213554 | 56 | 0 | 2.6 | 13.0 | 0.00 | 0.04 | 0.04 | 80 | 1012.1 |
| 20260506213057 | 55 | 31 | 2.6 | 13.0 | 0.00 | 0.04 | 0.04 | 80 | 1011.7 |
| 20260506212555 | 55 | 356 | 4.3 | 10.4 | 0.00 | 0.04 | 0.04 | 80 | 1011.6 |
| 20260506212056 | 55 | 23 | 2.6 | 10.4 | 0.00 | 0.04 | 0.04 | 77 | 1011.5 |
| 20260506211559 | 55 | 0 | 5.2 | 10.4 | 0.00 | 0.04 | 0.04 | 78 | 1011.8 |
| 20260506211055 | 55 | 0 | 5.2 | 10.4 | 0.00 | 0.04 | 0.04 | 76 | 1012.1 |
| 20260506210554 | 55 | 345 | 3.5 | 8.7 | 0.00 | 0.04 | 0.04 | 76 | 1012.4 |
| 20260506210057 | 54 | 0 | 2.6 | 8.7 | 0.00 | 0.04 | 0.04 | 75 | 1012.7 |
| 20260506205551 | 54 | 300 | 3.5 | 8.7 | 0.00 | 0.04 | 0.04 | 76 | 1012.6 |
| 20260506205055 | 54 | 316 | 0.0 | 8.7 | 0.00 | 0.04 | 0.04 | 74 | 1012.0 |
| 20260506204613 | 54 | 2 | 0.9 | 13.0 | 0.01 | 0.04 | 0.04 | 74 | 1012.0 |
| 20260506204055 | 54 | 14 | 5.2 | 18.2 | 0.01 | 0.04 | 0.04 | 75 | 1012.0 |
| 20260506203554 | 54 | 0 | 3.5 | 18.2 | 0.01 | 0.04 | 0.04 | 75 | 1011.9 |
| 20260506203056 | 54 | 6 | 7.8 | 17.4 | 0.02 | 0.04 | 0.04 | 73 | 1013.1 |
| 20260506202556 | 54 | 28 | 7.8 | 17.4 | 0.02 | 0.04 | 0.04 | 71 | 1013.4 |
| 20260506202055 | 54 | 7 | 11.3 | 20.9 | 0.02 | 0.04 | 0.04 | 70 | 1013.5 |
| 20260506201600 | 54 | 322 | 9.6 | 20.9 | 0.02 | 0.04 | 0.04 | 69 | 1013.5 |
| 20260506201057 | 54 | 26 | 12.2 | 20.9 | 0.02 | 0.04 | 0.04 | 68 | 1013.7 |
| 20260506200552 | 54 | 26 | 12.2 | 19.1 | 0.02 | 0.04 | 0.04 | 65 | 1013.7 |
| 20260506200053 | 54 | 323 | 12.2 | 19.1 | 0.02 | 0.04 | 0.04 | 66 | 1013.9 |
| 20260506195558 | 54 | 340 | 11.3 | 17.4 | 0.02 | 0.04 | 0.04 | 66 | 1014.0 |
| 20260506195052 | 54 | 328 | 7.8 | 21.7 | 0.02 | 0.04 | 0.04 | 65 | 1014.1 |
| 20260506194555 | 54 | 333 | 11.3 | 21.7 | 0.01 | 0.03 | 0.03 | 67 | 1014.0 |
| 20260506194054 | 54 | 340 | 13.9 | 21.7 | 0.01 | 0.03 | 0.03 | 70 | 1014.0 |
| 20260506193554 | 54 | 340 | 13.0 | 19.1 | 0.01 | 0.03 | 0.03 | 73 | 1014.0 |
| 20260506193055 | 54 | 337 | 11.3 | 18.2 | 0.00 | 0.02 | 0.02 | 74 | 1014.2 |
| 20260506192558 | 54 | 322 | 10.4 | 18.2 | 0.00 | 0.02 | 0.02 | 74 | 1014.0 |
| 20260506192056 | 54 | 316 | 7.8 | 13.0 | 0.00 | 0.02 | 0.02 | 72 | 1013.8 |
| 20260506191553 | 54 | 340 | 9.6 | 12.2 | 0.00 | 0.02 | 0.02 | 73 | 1013.9 |
| 20260506191052 | 54 | 316 | 7.0 | 12.2 | 0.00 | 0.02 | 0.02 | 73 | 1014.0 |
| 20260506190555 | 55 | 352 | 7.0 | 12.2 | 0.00 | 0.02 | 0.02 | 77 | 1013.9 |
| 20260506190054 | 55 | 313 | 7.0 | 13.9 | 0.00 | 0.02 | 0.02 | 79 | 1013.7 |
| 20260506185555 | 55 | 15 | 8.7 | 13.9 | 0.00 | 0.02 | 0.02 | 80 | 1013.8 |
| 20260506185055 | 55 | 7 | 8.7 | 13.9 | 0.00 | 0.02 | 0.02 | 80 | 1013.9 |
| 20260506184557 | 55 | 334 | 6.1 | 12.2 | 0.00 | 0.02 | 0.02 | 81 | 1013.9 |
| 20260506184052 | 55 | 323 | 6.1 | 12.2 | 0.00 | 0.02 | 0.02 | 81 | 1013.9 |
| 20260506183555 | 55 | 352 | 6.1 | 11.3 | 0.00 | 0.02 | 0.02 | 80 | 1013.7 |
| 20260506183055 | 55 | 356 | 2.6 | 12.2 | 0.00 | 0.02 | 0.02 | 77 | 1013.8 |
| 20260506182555 | 55 | 4 | 5.2 | 13.9 | 0.00 | 0.02 | 0.02 | 80 | 1013.8 |
| 20260506182054 | 55 | 1 | 9.6 | 13.9 | 0.00 | 0.02 | 0.02 | 80 | 1013.9 |
| 20260506181553 | 55 | 19 | 7.8 | 13.0 | 0.00 | 0.02 | 0.02 | 79 | 1014.0 |
| 20260506181052 | 55 | 328 | 7.8 | 13.9 | 0.00 | 0.02 | 0.02 | 78 | 1013.9 |
| 20260506180555 | 55 | 37 | 6.1 | 13.9 | 0.00 | 0.02 | 0.02 | 76 | 1013.9 |
| 20260506175554 | 55 | 6 | 7.8 | 15.6 | 0.00 | 0.02 | 0.02 | 72 | 1013.6 |
| 20260506175054 | 55 | 23 | 7.0 | 14.8 | 0.00 | 0.02 | 0.02 | 68 | 1013.5 |
| 20260506174559 | 55 | 24 | 6.1 | 14.8 | 0.00 | 0.02 | 0.02 | 65 | 1013.3 |
| 20260506174058 | 54 | 13 | 9.6 | 14.8 | 0.00 | 0.02 | 0.02 | 63 | 1013.4 |
| 20260506173552 | 55 | 342 | 4.3 | 13.9 | 0.00 | 0.02 | 0.02 | 62 | 1013.5 |
| 20260506173126 | 55 | 335 | 7.8 | 14.8 | 0.00 | 0.02 | 0.02 | 64 | 1013.6 |
| 20260506172551 | 55 | 1 | 9.6 | 14.8 | 0.00 | 0.02 | 0.02 | 68 | 1013.6 |
| 20260506172053 | 55 | 3 | 8.7 | 13.9 | 0.00 | 0.02 | 0.02 | 66 | 1013.6 |
| 20260506171555 | 55 | 8 | 8.7 | 13.0 | 0.00 | 0.02 | 0.02 | 64 | 1013.6 |
| 20260506171055 | 55 | 345 | 8.7 | 12.2 | 0.00 | 0.02 | 0.02 | 62 | 1013.7 |
| 20260506170555 | 55 | 34 | 6.1 | 13.0 | 0.00 | 0.02 | 0.02 | 61 | 1013.9 |
| 20260506170055 | 55 | 342 | 9.6 | 13.0 | 0.00 | 0.02 | 0.02 | 63 | 1013.8 |
| 20260506165554 | 55 | 333 | 8.7 | 13.0 | 0.00 | 0.02 | 0.02 | 63 | 1013.8 |
| 20260506165055 | 55 | 345 | 8.7 | 12.2 | 0.00 | 0.02 | 0.02 | 65 | 1014.1 |
| 20260506164553 | 55 | 319 | 7.0 | 14.8 | 0.00 | 0.02 | 0.02 | 63 | 1014.1 |
| 20260506164054 | 55 | 340 | 7.8 | 14.8 | 0.00 | 0.02 | 0.02 | 65 | 1014.0 |
| 20260506163554 | 55 | 338 | 7.0 | 13.9 | 0.00 | 0.02 | 0.02 | 63 | 1013.9 |
| 20260506163056 | 55 | 336 | 7.8 | 13.9 | 0.00 | 0.02 | 0.02 | 65 | 1013.6 |
| 20260506162553 | 55 | 345 | 8.7 | 15.6 | 0.00 | 0.02 | 0.02 | 65 | 1013.4 |
| 20260506162053 | 55 | 340 | 9.6 | 15.6 | 0.00 | 0.02 | 0.02 | 64 | 1013.4 |
| 20260506161603 | 55 | 324 | 8.7 | 13.0 | 0.00 | 0.02 | 0.02 | 64 | 1013.4 |
| 20260506161055 | 55 | 25 | 7.8 | 13.0 | 0.00 | 0.02 | 0.02 | 62 | 1013.4 |
| 20260506160553 | 55 | 330 | 8.7 | 13.9 | 0.00 | 0.02 | 0.02 | 64 | 1013.4 |
| 20260506160054 | 55 | 11 | 7.8 | 14.8 | 0.00 | 0.02 | 0.02 | 63 | 1013.2 |
| 20260506155553 | 55 | 14 | 7.8 | 14.8 | 0.00 | 0.02 | 0.02 | 64 | 1013.2 |
| 20260506155054 | 55 | 20 | 7.0 | 14.8 | 0.00 | 0.02 | 0.02 | 64 | 1013.1 |
| 20260506154554 | 55 | 22 | 8.7 | 15.6 | 0.00 | 0.02 | 0.02 | 63 | 1013.1 |
| 20260506154054 | 55 | 1 | 7.8 | 15.6 | 0.00 | 0.02 | 0.02 | 62 | 1013.3 |
| 20260506153553 | 54 | 354 | 8.7 | 15.6 | 0.00 | 0.02 | 0.02 | 62 | 1013.2 |
| 20260506153057 | 54 | 345 | 7.8 | 14.8 | 0.00 | 0.02 | 0.02 | 60 | 1013.0 |
| 20260506152553 | 54 | 338 | 7.0 | 13.0 | 0.00 | 0.02 | 0.02 | 59 | 1013.0 |
| 20260506152056 | 54 | 356 | 9.6 | 13.0 | 0.00 | 0.02 | 0.02 | 60 | 1012.9 |
| 20260506151603 | 54 | 342 | 9.6 | 13.0 | 0.00 | 0.02 | 0.02 | 61 | 1012.9 |
| 20260506151053 | 54 | 341 | 7.0 | 13.0 | 0.00 | 0.02 | 0.02 | 59 | 1012.7 |
| 20260506150553 | 54 | 22 | 7.8 | 12.2 | 0.00 | 0.02 | 0.02 | 59 | 1012.8 |
| 20260506150106 | 54 | 341 | 7.8 | 12.2 | 0.00 | 0.02 | 0.02 | 60 | 1012.7 |
| 20260506145553 | 54 | 329 | 7.8 | 12.2 | 0.01 | 0.02 | 0.02 | 59 | 1012.5 |
| 20260506145056 | 54 | 330 | 6.1 | 11.3 | 0.01 | 0.02 | 0.02 | 60 | 1012.5 |
| 20260506144611 | 54 | 333 | 7.8 | 11.3 | 0.01 | 0.02 | 0.02 | 62 | 1012.9 |
| 20260506144054 | 54 | 346 | 7.0 | 14.8 | 0.01 | 0.02 | 0.02 | 62 | 1012.7 |
| 20260506143554 | 54 | 330 | 8.7 | 14.8 | 0.01 | 0.02 | 0.02 | 63 | 1012.8 |
| 20260506143057 | 54 | 334 | 10.4 | 13.9 | 0.01 | 0.02 | 0.02 | 63 | 1012.8 |
| 20260506142557 | 54 | 352 | 9.6 | 13.9 | 0.01 | 0.02 | 0.02 | 64 | 1012.7 |
| 20260506142053 | 55 | 7 | 7.8 | 15.6 | 0.01 | 0.02 | 0.02 | 63 | 1012.5 |
| 20260506141554 | 55 | 324 | 9.6 | 15.6 | 0.01 | 0.02 | 0.02 | 61 | 1012.4 |
| 20260506141056 | 55 | 7 | 9.6 | 14.8 | 0.01 | 0.02 | 0.02 | 59 | 1012.3 |
| 20260506140554 | 55 | 325 | 8.7 | 13.0 | 0.01 | 0.02 | 0.02 | 57 | 1012.3 |
| 20260506140106 | 55 | 350 | 7.8 | 12.2 | 0.01 | 0.02 | 0.02 | 57 | 1012.2 |
| 20260506135553 | 56 | 326 | 7.8 | 11.3 | 0.00 | 0.01 | 0.01 | 57 | 1012.2 |
| 20260506135052 | 56 | 2 | 6.1 | 9.6 | 0.00 | 0.01 | 0.01 | 58 | 1012.0 |
| 20260506134554 | 56 | 341 | 5.2 | 9.6 | 0.00 | 0.01 | 0.01 | 59 | 1011.7 |
| 20260506134054 | 56 | 34 | 5.2 | 9.6 | 0.00 | 0.01 | 0.01 | 60 | 1011.3 |
| 20260506133553 | 56 | 319 | 5.2 | 9.6 | 0.00 | 0.01 | 0.01 | 60 | 1011.5 |
| 20260506133133 | 56 | 13 | 5.2 | 8.7 | 0.00 | 0.01 | 0.01 | 59 | 1011.5 |
| 20260506132554 | 56 | 315 | 4.3 | 9.6 | 0.00 | 0.01 | 0.01 | 61 | 1011.5 |
| 20260506132055 | 56 | 12 | 4.3 | 10.4 | 0.00 | 0.01 | 0.01 | 62 | 1011.4 |
| 20260506131558 | 56 | 342 | 7.0 | 14.8 | 0.00 | 0.01 | 0.01 | 65 | 1011.5 |
| 20260506131058 | 56 | 20 | 6.1 | 14.8 | 0.00 | 0.01 | 0.01 | 66 | 1011.5 |
| 20260506130552 | 56 | 347 | 8.7 | 14.8 | 0.00 | 0.01 | 0.01 | 67 | 1011.6 |
| 20260506130138 | 56 | 336 | 7.8 | 12.2 | 0.00 | 0.01 | 0.01 | 67 | 1011.6 |
| 20260506125554 | 56 | 359 | 5.2 | 12.2 | 0.00 | 0.01 | 0.01 | 67 | 1011.3 |
| 20260506125054 | 56 | 353 | 7.8 | 12.2 | 0.00 | 0.01 | 0.01 | 67 | 1011.4 |
| 20260506124553 | 56 | 345 | 5.2 | 9.6 | 0.00 | 0.01 | 0.01 | 66 | 1011.2 |
| 20260506124054 | 56 | 15 | 4.3 | 8.7 | 0.00 | 0.01 | 0.01 | 66 | 1011.1 |
| 20260506123554 | 56 | 9 | 5.2 | 8.7 | 0.00 | 0.01 | 0.01 | 67 | 1011.0 |
| 20260506123101 | 56 | 5 | 5.2 | 8.7 | 0.00 | 0.01 | 0.01 | 67 | 1010.8 |
| 20260506122552 | 56 | 345 | 3.5 | 7.0 | 0.01 | 0.01 | 0.01 | 66 | 1010.7 |
| 20260506122050 | 56 | 349 | 3.5 | 8.7 | 0.01 | 0.01 | 0.01 | 66 | 1010.8 |
| 20260506121600 | 56 | 18 | 3.5 | 9.6 | 0.01 | 0.01 | 0.01 | 68 | 1010.6 |
| 20260506121055 | 56 | 41 | 4.3 | 10.4 | 0.01 | 0.01 | 0.01 | 67 | 1010.5 |
| 20260506120556 | 56 | 48 | 5.2 | 10.4 | 0.01 | 0.01 | 0.01 | 69 | 1010.4 |
| 20260506120104 | 56 | 323 | 5.2 | 11.3 | 0.01 | 0.01 | 0.01 | 67 | 1010.2 |
| 20260506115555 | 56 | 357 | 5.2 | 13.9 | 0.01 | 0.01 | 0.01 | 68 | 1010.1 |
| 20260506115055 | 56 | 8 | 7.0 | 13.9 | 0.01 | 0.01 | 0.01 | 70 | 1010.3 |
| 20260506114554 | 57 | 8 | 8.7 | 13.9 | 0.01 | 0.01 | 0.01 | 70 | 1010.2 |
| 20260506114051 | 57 | 340 | 7.0 | 11.3 | 0.01 | 0.01 | 0.01 | 68 | 1010.4 |
| 20260506113552 | 57 | 21 | 7.0 | 11.3 | 0.01 | 0.01 | 0.01 | 67 | 1010.3 |
| 20260506113054 | 58 | 16 | 6.1 | 11.3 | 0.01 | 0.01 | 0.01 | 65 | 1010.2 |
| 20260506112554 | 58 | 7 | 5.2 | 8.7 | 0.00 | 0.00 | 0.00 | 66 | 1010.2 |
| 20260506112054 | 58 | 329 | 0.9 | 10.4 | 0.00 | 0.00 | 0.00 | 67 | 1009.9 |
| 20260506111557 | 58 | 34 | 5.2 | 13.0 | 0.00 | 0.00 | 0.00 | 68 | 1009.8 |
| 20260506111054 | 58 | 19 | 7.8 | 13.0 | 0.00 | 0.00 | 0.00 | 69 | 1009.8 |
| 20260506110554 | 57 | 11 | 7.0 | 10.4 | 0.00 | 0.00 | 0.00 | 70 | 1009.7 |
| 20260506110053 | 57 | 18 | 5.2 | 10.4 | 0.00 | 0.00 | 0.00 | 71 | 1009.8 |